Location: Peebles
(55.6412°N, 3.1714°W)
Time: 15:00:15
(UTC+01:00)

USA 308 - Pass Details

Date: 26 September 2021
Orbit: 566 x 573 km, 54.0° (Epoch: 23 September)

Event Time Altitude Azimuth Distance (km) Brightness Sun altitude
Rises 20:21:34 0° 278° (W) 2,771 8.4 -12.1°
Reaches altitude 10° 20:23:50 10° 274° (W) 1,873 6.9 -12.4°
Maximum altitude 20:28:01 58° 196° (SSW) 670 3.2 -13.0°
Enters shadow 20:30:44 21° 123° (ESE) 1,317 4.2 -13.4°
